Location: Newark
(54.6833°N, 25.2833°E)
Time: 15:02:22
(UTC+00:00)

Altair - Pass Details

Date: 17 November 2019
Orbit: 1502 x 1682 km, 47.2° (Epoch: 07 December)

Event Time Altitude Azimuth Distance (km) Brightness Sun altitude
Rises 06:58:36 0° 278° (W) 4,652 9.5 6.5°
Reaches altitude 10° 07:01:50 10° 272° (W) 3,681 9.1 6.8°
Maximum altitude 07:10:11 40° 207° (SSW) 2,151 8.7 7.6°
Drops below altitude 10° 07:18:47 10° 143° (SE) 3,784 13.5 8.4°
Sets 07:22:09 0° 136° (SE) 4,793 12.4 8.7°
